Observations for Trim Market St
| Time | AQI | Temp °C | Hum % | Pres Pa | CO μg/m³ | H₂S μg/m³ | NO μg/m³ | NO₂ μg/m³ | O₃ μg/m³ | SO₂ μg/m³ | PM1 μg/m³ | PM2.5 μg/m³ | PM10 μg/m³ |
|---|---|---|---|---|---|---|---|---|---|---|---|---|---|
| Tuesday 18 August 2026 | |||||||||||||
| 15:56 | 2 | 25 | 45 | 65,331 | 0 | 0 | 1.79 | 10.65 | 69.7 | 0 | 0 | 2.13 | 2.34 |
| 15:53 | 2 | 25.1 | 45 | 65,337 | 0 | 0 | 1.4 | 10.59 | 78.84 | 0 | 0 | 2.13 | 2.35 |
| 15:52 | 2 | 25.1 | 45 | 65,348 | 0 | 0 | 1.27 | 9.02 | 68.67 | 0 | 0 | 2.66 | 2.92 |
| 15:51 | 2 | 25.1 | 45 | 65,364 | 0 | 0 | 1.22 | 9.94 | 69.48 | 0 | 0 | 2.14 | 2.36 |
| 15:47 | 2 | 25.3 | 45 | 65,345 | 0 | 0 | 1.56 | 10.48 | 64.86 | 0 | 2.14 | 5.27 | 6.75 |
| 15:45 | 2 | 25.3 | 45 | 65,404 | 0 | 0 | 1.82 | 10.53 | 63.43 | 0 | 3.56 | 6.84 | 8.3 |
| 15:41 | 2 | 25.4 | 45 | 65,404 | 0 | 0 | 1.25 | 10.27 | 72.26 | 0 | 0.71 | 3.19 | 3.51 |
| 15:37 | 2 | 25.4 | 45 | 65,475 | 0 | 0 | 1.63 | 9.31 | 62.7 | 0 | 0 | 2.16 | 2.37 |
| 15:33 | 2 | 25.5 | 45 | 65,479 | 0 | 0 | 1.68 | 7.88 | 44.26 | 0 | 0 | 2.16 | 2.38 |
| 15:32 | 2 | 25.5 | 45 | 65,439 | 0 | 0 | 1.65 | 8.28 | 64.34 | 0 | 0 | 2.68 | 2.87 |
| 15:31 | 2 | 25.5 | 45 | 65,456 | 0 | 0 | 1.66 | 10.39 | 64.04 | 0 | 0 | 2.15 | 2.37 |
| 15:30 | 2 | 25.5 | 45 | 65,435 | 0 | 0 | 1.68 | 10.42 | 54.78 | 0 | 0 | 2.15 | 2.37 |
| 15:29 | 2 | 25.5 | 45 | 65,443 | 0 | 0 | 1.69 | 10.25 | 60.27 | 0 | 0 | 2.15 | 2.36 |
| 15:28 | 2 | 25.5 | 45 | 65,460 | 0 | 0 | 1.66 | 8.89 | 59.4 | 0 | 0 | 2.14 | 2.35 |
| 15:27 | 2 | 25.5 | 45 | 65,443 | 0 | 0 | 1.68 | 10.45 | 68.2 | 0 | 0 | 2.14 | 2.36 |
| 15:26 | 2 | 25.5 | 45 | 65,456 | 0 | 0 | 1.66 | 9.81 | 62.71 | 0 | 0 | 2.13 | 2.35 |
| 15:25 | 2 | 25.5 | 46 | 65,410 | 0 | 0 | 1.65 | 10.6 | 41.9 | 0 | 0 | 2.12 | 2.33 |
| 15:24 | 2 | 25.5 | 46 | 65,380 | 0 | 0 | 1.65 | 8.47 | 57.88 | 0 | 0 | 2.64 | 2.9 |
| 15:23 | 2 | 25.5 | 46 | 65,372 | 0 | 0 | 1.66 | 9.42 | 64.76 | 0 | 0 | 2.12 | 2.33 |
| 15:22 | 2 | 25.4 | 46 | 65,358 | 0 | 0 | 1.7 | 8.89 | 64.95 | 0 | 0 | 2.11 | 3.68 |